Regional Weather Roundup
Issued by NWS

Home | Current Version | Previous Version | Graphics & Text | Print | Product List | Glossary On
Versions: 1 2 3 4 5 6 7 8 9 10 11 12 13 14 15 16 17 18 19 20 21 22 23 24 25 26 27 28 29 30 31 32 33 34 35 36 37 38 39 40 41 42 43 44 45 46 47 48 49 50
108
ASUS45 KSLC 171910
RWRUT

UTAH REGIONAL WEATHER ROUNDUP
NATIONAL WEATHER SERVICE SALT LAKE CITY UT
100 PM MDT THU AUG 17 2017

UTZ001>011-023>025-172000-

NORTHERN UTAH

CITY           SKY/WX    TMP DP  RH WIND       PRES   REMARKS
BRIGHAM CITY   SUNNY     83  33  16 SW6       30.15S
DUGWAY         MOSUNNY   86  35  16 NW8       30.14F
HILL AFB       MOSUNNY   83  41  22 W8        30.17F
LOGAN          SUNNY     84  35  17 NE5       30.15F
OGDEN          MOSUNNY   84  40  21 SW8       30.14F
SALT LAKE CITY MOSUNNY   89  38  16 N6        30.12F
TOOELE VALLEY  SUNNY     86  43  22 N8        30.14F
WENDOVER       SUNNY     85  41  21 SE10      30.14F
HEBER CITY     SUNNY     81  41  24 W6        30.20F
WEST JORDAN    SUNNY     84  52  33 S5        30.16F

$$

UTZ011>015-024>027-172000-

CENTRAL/NORTHEAST UTAH

CITY           SKY/WX    TMP DP  RH WIND       PRES   REMARKS
PROVO AIRPORT  MOSUNNY   84  43  23 CALM      30.16F
MOAB/CANYONLAN SUNNY     89  33  13 CALM      30.13F
DELTA          SUNNY     82  32  16 CALM      30.17F
PRICE          MOSUNNY   82  35  18 SE7       30.23F
ROOSEVELT      SUNNY     81  41  24 CALM      30.20F
VERNAL         SUNNY     81  42  25 VRB7      30.20F

$$

UTZ013>016-019>022-027-172000-

SOUTHERN UTAH

CITY           SKY/WX    TMP DP  RH WIND       PRES   REMARKS
BRYCE CANYON   MOSUNNY   75  29  18 CALM      30.38S
CEDAR CITY     SUNNY     84  38  19 VRB3      30.23F
MILFORD        SUNNY     86  37  17 S12       30.17F
ST GEORGE      CLEAR     90  41  18 S5        30.06F
HANKSVILLE     SUNNY     88  32  13 W3        30.15F
BLANDING       SUNNY     82  31  15 S8        30.32F

$$

REGIONAL REPORTS     COLORADO/ARIZONA

CITY           SKY/WX    TMP DP  RH WIND       PRES   REMARKS
CRAIG, CO      SUNNY     82  31  15 MISG      30.24F
GRAND JUNCTION SUNNY     84  35  17 VRB3      30.17F
RIFLE, CO      SUNNY     84  37  18 VRB6      30.20F
MONTROSE, CO   SUNNY     80  39  23 N9        30.24F
CORTEZ, CO     SUNNY     84  26  12 VRB6      30.24F
COLORADO CITY    N/A     88  39  18 N7        30.22F
PAGE, AZ       SUNNY     88  36  15 CALM      30.14F
GRAND CANYON   MOSUNNY   77  37  23 S13       30.33F
KINGMAN, AZ    SUNNY     92  40  16 W6        30.10F
FLAGSTAFF, AZ  SUNNY     74  32  21 SW14      30.36F

$$

REGIONAL REPORTS    NEVADA/IDAHO/WYOMING

CITY           SKY/WX    TMP DP  RH WIND       PRES   REMARKS
LAS VEGAS, NV  MOSUNNY   95  39  14 VRB3      30.01S HX  91
ELY, NY        CLOUDY    80  34  19 NW12      30.27F
ELKO, NV       SUNNY     84  30  14 SW10      30.20F
POCATELLO, ID  SUNNY     82  39  21 W17       30.16F
BURLEY, ID     SUNNY     79  45  29 W10       30.14F
FORT BRIDGER,    N/A     79  32  18 W18G25    30.31F
EVANSTON, WY   SUNNY     77  36  22 W16G26    30.30F
ROCK SPRINGS,  SUNNY     78  32  18 W10G24    30.25F
KEMMERER, WY     N/A     73  34  23 SW22G28   30.30F

$$




USA.gov is the U.S. government's official web portal to all federal, state and local government web resources and services.